Location: Blankensee
(53.5126°N, 14.3055°E)
Time: 17:46:12
(UTC+00:00)

Cosmos 1340 Rocket - Pass Details

Date: 08 August 2020
Orbit: 529 x 558 km, 81.2° (Epoch: 19 September)

Event Time Altitude Azimuth Distance (km) Brightness Sun altitude
Exits shadow 01:49:32 12° 180° (S) 1,672 4.8 -12.4°
Maximum altitude 01:53:08 64° 100° (E) 605 3.1 -12.0°
Drops below altitude 10° 01:57:04 10° 19° (NNE) 1,808 6.6 -11.6°
Sets 01:59:14 0° 16° (NNE) 2,700 7.6 -11.4°
